LU1MQF-13 Weather Reports


time (UTC)temp
C
wind
direction
speed
KPH
gust
KPH
rain 1hr
cm
rain 24hr
cm
rain mn
cm
humidity
%
barometer
mb
20260509185718 16 0 0.0 0.0 0.00 0.00 0.00 41 947.8
20260509184218 16 0 0.0 0.0 0.00 0.00 0.00 40 948.2
20260509182718 16 0 0.0 0.0 0.00 0.00 0.00 40 948.6
20260509181218 16 0 0.0 0.0 0.00 0.00 0.00 43 948.8
20260509175718 16 0 0.0 0.0 0.00 0.00 0.00 41 949.0
20260509174218 16 0 0.0 0.0 0.00 0.00 0.00 40 949.1
20260509172718 16 0 0.0 0.0 0.00 0.00 0.00 41 949.4
20260509171218 16 0 0.0 0.0 0.00 0.00 0.00 44 949.7
20260509165718 16 0 0.0 0.0 0.00 0.00 0.00 40 949.9
20260509164218 16 0 0.0 0.0 0.00 0.00 0.00 39 950.0
20260509162718 15 0 0.0 0.0 0.00 0.00 0.00 38 950.5
20260509161218 15 0 0.0 0.0 0.00 0.00 0.00 36 950.8
20260509155718 15 0 0.0 0.0 0.00 0.00 0.00 36 951.1
20260509154218 15 0 0.0 0.0 0.00 0.00 0.00 38 951.3
20260509152717 15 0 0.0 0.0 0.00 0.00 0.00 39 951.6
20260509151218 15 0 0.0 0.0 0.00 0.00 0.00 38 951.6
20260509145717 15 0 0.0 0.0 0.00 0.00 0.00 38 951.8
20260509144217 13 0 0.0 0.0 0.00 0.00 0.00 40 951.8
20260509142717 13 0 0.0 0.0 0.00 0.00 0.00 42 951.8
20260509141217 12 0 0.0 0.0 0.00 0.00 0.00 41 951.9
20260509135718 12 0 0.0 0.0 0.00 0.00 0.00 40 951.9
20260509134218 12 0 0.0 0.0 0.00 0.00 0.00 40 952.0
20260509132718 12 0 0.0 0.0 0.00 0.00 0.00 41 951.8
20260509131217 12 0 0.0 0.0 0.00 0.00 0.00 39 951.9
20260509125717 12 0 0.0 0.0 0.00 0.00 0.00 40 951.8
20260509124217 12 0 0.0 0.0 0.00 0.00 0.00 39 951.5
20260509122717 11 0 0.0 0.0 0.00 0.00 0.00 39 951.3
20260509121217 11 0 0.0 0.0 0.00 0.00 0.00 39 951.0
20260509115717 11 0 0.0 0.0 0.00 0.00 0.00 39 950.8
20260509114217 10 0 0.0 0.0 0.00 0.00 0.00 40 950.6
20260509112717 10 0 0.0 0.0 0.00 0.00 0.00 40 950.6
20260509111217 10 0 0.0 0.0 0.00 0.00 0.00 40 950.1
20260509105717 11 0 0.0 0.0 0.00 0.00 0.00 39 950.1
20260509104217 11 0 0.0 0.0 0.00 0.00 0.00 39 950.0
20260509102717 11 0 0.0 0.0 0.00 0.00 0.00 39 950.0
20260509101217 11 0 0.0 0.0 0.00 0.00 0.00 39 949.9
20260509095717 11 0 0.0 0.0 0.00 0.00 0.00 40 949.8
20260509094217 11 0 0.0 0.0 0.00 0.00 0.00 40 949.6
20260509092717 11 0 0.0 0.0 0.00 0.00 0.00 40 949.4
20260509091217 11 0 0.0 0.0 0.00 0.00 0.00 40 949.1
20260509085717 11 0 0.0 0.0 0.00 0.00 0.00 40 948.9
20260509084217 11 0 0.0 0.0 0.00 0.00 0.00 40 948.9
20260509082717 11 0 0.0 0.0 0.00 0.00 0.00 40 948.8
20260509081217 12 0 0.0 0.0 0.00 0.00 0.00 40 948.8
20260509075717 12 0 0.0 0.0 0.00 0.00 0.00 40 948.6
20260509074217 12 0 0.0 0.0 0.00 0.00 0.00 40 948.7
20260509072717 12 0 0.0 0.0 0.00 0.00 0.00 40 948.8
20260509071217 12 0 0.0 0.0 0.00 0.00 0.00 40 948.5
20260509065717 12 0 0.0 0.0 0.00 0.00 0.00 41 948.5
20260509064217 12 0 0.0 0.0 0.00 0.00 0.00 41 948.5
20260509062717 12 0 0.0 0.0 0.00 0.00 0.00 41 948.5
20260509061217 12 0 0.0 0.0 0.00 0.00 0.00 41 948.4
20260509055717 12 0 0.0 0.0 0.00 0.00 0.00 41 948.4
20260509054216 12 0 0.0 0.0 0.00 0.00 0.00 41 948.4
20260509052716 12 0 0.0 0.0 0.00 0.00 0.00 41 948.3
20260509051216 12 0 0.0 0.0 0.00 0.00 0.00 41 948.1
20260509045717 12 0 0.0 0.0 0.00 0.00 0.00 41 947.8
20260509044217 12 0 0.0 0.0 0.00 0.00 0.00 42 947.4
20260509042717 12 0 0.0 0.0 0.00 0.00 0.00 43 947.0
20260509041217 12 0 0.0 0.0 0.00 0.00 0.00 46 947.0
20260509035717 12 0 0.0 0.0 0.00 0.00 0.00 44 947.0
20260509034216 12 0 0.0 0.0 0.00 0.00 0.00 45 947.1
20260509032716 12 0 0.0 0.0 0.00 0.00 0.00 46 947.0
20260509031217 12 0 0.0 0.0 0.00 0.00 0.00 47 947.2
20260509025717 12 0 0.0 0.0 0.00 0.00 0.00 43 947.4
20260509024216 12 0 0.0 0.0 0.00 0.00 0.00 44 947.2
20260509022716 12 0 0.0 0.0 0.00 0.00 0.00 44 946.9
20260509021217 12 0 0.0 0.0 0.00 0.00 0.00 48 946.9
20260509015717 12 0 0.0 0.0 0.00 0.00 0.00 44 946.9
20260509014216 12 0 0.0 0.0 0.00 0.00 0.00 43 946.6
20260509012716 12 0 0.0 0.0 0.00 0.00 0.00 42 946.1
20260509011216 12 0 0.0 0.0 0.00 0.00 0.00 45 946.0
20260509005716 13 0 0.0 0.0 0.00 0.00 0.00 46 946.0
20260509004217 13 0 0.0 0.0 0.00 0.00 0.00 50 945.7
20260509002716 13 0 0.0 0.0 0.00 0.00 0.00 59 945.1
20260509001216 13 0 0.0 0.0 0.00 0.00 0.00 43 945.0
20260508235716 13 0 0.0 0.0 0.00 0.00 0.00 39 944.6
20260508234216 13 0 0.0 0.0 0.00 0.00 0.00 39 944.2
20260508232716 12 0 0.0 0.0 0.00 0.00 0.00 36 943.8
20260508231216 13 0 0.0 0.0 0.00 0.00 0.00 36 942.8
20260508225716 12 0 0.0 0.0 0.00 0.00 0.00 36 942.9
20260508224216 12 0 0.0 0.0 0.00 0.00 0.00 36 942.3
20260508222716 12 0 0.0 0.0 0.00 0.00 0.00 36 941.6
20260508221216 12 0 0.0 0.0 0.00 0.00 0.00 36 940.9
20260508215716 12 0 0.0 0.0 0.00 0.00 0.00 36 940.3
20260508214216 12 0 0.0 0.0 0.00 0.00 0.00 36 940.0
20260508212716 13 0 0.0 0.0 0.00 0.00 0.00 36 939.2
20260508211216 13 0 0.0 0.0 0.00 0.00 0.00 35 938.8
20260508205716 15 0 0.0 0.0 0.00 0.00 0.00 32 938.0
20260508204216 16 0 0.0 0.0 0.00 0.00 0.00 28 937.6
20260508202716 16 0 0.0 0.0 0.00 0.00 0.00 25 936.7
20260508201216 17 0 0.0 0.0 0.00 0.00 0.00 24 935.5
20260508195716 17 0 0.0 0.0 0.00 0.00 0.00 22 934.8
20260508194216 17 0 0.0 0.0 0.00 0.00 0.00 24 933.9
20260508191216 18 0 0.0 0.0 0.00 0.00 0.00 25 933.5